CCA1731 ZSPD-ZSAM

Flight info

Callsign CCA1731
Flight time 0h 56m
Altitude 31000
Route ZSPD/16R NXD W131 AKDIM A470 ENVEN ZSAM/05
Aircraft B738/M-SDE1E2E3FGHIJ2J3J4J5M1RWXYZ/LB1D1

Departure

Time 2026-05-04 16:13
Airport Shanghai Pudong International Airport (ZSPD)

Arrival

Time 2026-05-04 17:10
Airport Xiamen Gaoqi International Airport (ZSAM)
Time Latitude Longitude Altitude Speed Heading
2026-05-04 16:01 31.14958 121.80978 27 ft 2 kts 319°
2026-05-04 16:01 31.14945 121.80989 25 ft 2 kts 331°
2026-05-04 16:02 31.14931 121.80997 25 ft 1 kts 340°
2026-05-04 16:02 31.14927 121.80999 24 ft 0 kts 341°
2026-05-04 16:06 31.14941 121.80993 25 ft 5 kts 342°
2026-05-04 16:07 31.15007 121.80969 22 ft 10 kts 342°
2026-05-04 16:07 31.15233 121.80883 22 ft 8 kts 342°
2026-05-04 16:08 31.15286 121.80863 22 ft 8 kts 342°
2026-05-04 16:08 31.15368 121.80989 24 ft 8 kts 72°
2026-05-04 16:09 31.15415 121.81119 21 ft 8 kts 35°
2026-05-04 16:09 31.15527 121.81094 21 ft 11 kts 342°
2026-05-04 16:10 31.15683 121.81035 21 ft 9 kts 341°
2026-05-04 16:11 31.15837 121.81023 21 ft 8 kts 60°
2026-05-04 16:11 31.15856 121.81077 21 ft 7 kts 72°
2026-05-04 16:12 31.15872 121.81191 21 ft 5 kts 140°
2026-05-04 16:12 31.15835 121.81204 21 ft 0 kts 163°
2026-05-04 16:13 31.15084 121.81488 21 ft 133 kts 162°
2026-05-04 16:13 31.12855 121.82354 1276 ft 182 kts 165°
2026-05-04 16:14 31.10362 121.83533 3064 ft 208 kts 155°
2026-05-04 16:14 31.07560 121.85319 3675 ft 246 kts 148°
2026-05-04 16:15 31.02919 121.87752 5386 ft 253 kts 190°
2026-05-04 16:16 31.00030 121.85553 5980 ft 262 kts 239°
2026-05-04 16:16 30.98189 121.79545 5998 ft 271 kts 255°
2026-05-04 16:17 30.97069 121.75341 6008 ft 272 kts 255°
2026-05-04 16:18 30.96642 121.68976 6556 ft 268 kts 284°
2026-05-04 16:18 30.97047 121.66850 7314 ft 269 kts 284°
2026-05-04 16:19 30.98269 121.60374 9594 ft 277 kts 284°
2026-05-04 16:19 30.99097 121.55908 10597 ft 300 kts 283°
2026-05-04 16:20 31.00526 121.48153 11344 ft 353 kts 283°
2026-05-04 16:20 31.01556 121.42528 12711 ft 357 kts 282°
2026-05-04 16:21 31.03135 121.33932 14653 ft 363 kts 281°
2026-05-04 16:22 31.04182 121.28212 15866 ft 366 kts 281°
2026-05-04 16:22 31.05782 121.19441 17623 ft 371 kts 281°
2026-05-04 16:23 31.06581 121.10504 19163 ft 374 kts 258°
2026-05-04 16:24 31.03667 120.98796 21077 ft 380 kts 255°
2026-05-04 16:25 31.02171 120.92884 21990 ft 382 kts 255°
2026-05-04 16:26 30.99188 120.80903 23685 ft 387 kts 255°
2026-05-04 16:26 30.96928 120.71826 24670 ft 390 kts 255°
2026-05-04 16:27 30.95408 120.65742 25348 ft 391 kts 255°
2026-05-04 16:28 30.93136 120.56668 25662 ft 388 kts 255°
2026-05-04 16:28 30.90858 120.47599 25675 ft 390 kts 255°
2026-05-04 16:29 30.83887 120.38027 25668 ft 406 kts 221°
2026-05-04 16:30 30.76926 120.32447 25660 ft 403 kts 221°
2026-05-04 16:31 30.73116 120.29353 25656 ft 401 kts 221°
2026-05-04 16:31 30.66297 120.23766 25663 ft 399 kts 221°
2026-05-04 16:32 30.48494 120.09193 25670 ft 407 kts 221°
2026-05-04 16:33 30.29180 119.95581 25604 ft 399 kts 216°
2026-05-04 16:33 30.09875 119.82815 25698 ft 407 kts 216°
2026-05-04 16:34 29.90263 119.69697 25654 ft 402 kts 216°
2026-05-04 16:34 29.79454 119.65946 25641 ft 424 kts 188°
2026-05-04 16:35 29.43824 119.64305 25706 ft 434 kts 192°
2026-05-04 16:35 29.08506 119.61990 25725 ft 422 kts 191°
2026-05-04 16:36 28.96654 119.61246 25726 ft 430 kts 191°
2026-05-04 16:36 28.72894 119.59787 25705 ft 422 kts 191°
2026-05-04 16:37 28.45653 119.58079 25729 ft 424 kts 191°
2026-05-04 16:37 28.33695 119.57438 25729 ft 435 kts 190°
2026-05-04 16:37 28.09881 119.56186 25732 ft 419 kts 190°
2026-05-04 16:38 27.86237 119.55837 25840 ft 433 kts 189°
2026-05-04 16:39 27.50332 119.55642 25705 ft 421 kts 189°
2026-05-04 16:39 27.26565 119.55600 25785 ft 434 kts 188°
2026-05-04 16:40 27.02630 119.55447 25698 ft 421 kts 188°
2026-05-04 16:40 26.79121 119.55268 25758 ft 430 kts 188°
2026-05-04 16:41 26.55391 119.55119 25723 ft 423 kts 187°
2026-05-04 16:41 26.19857 119.54365 25734 ft 427 kts 199°
2026-05-04 16:42 25.89746 119.43834 25720 ft 412 kts 202°
2026-05-04 16:43 25.84207 119.41954 25591 ft 422 kts 202°
2026-05-04 16:43 25.78629 119.40066 24974 ft 414 kts 203°
2026-05-04 16:43 25.76007 119.38878 24670 ft 404 kts 212°
2026-05-04 16:44 25.67656 119.31122 23518 ft 388 kts 230°
2026-05-04 16:45 25.63996 119.26761 22830 ft 385 kts 230°
2026-05-04 16:46 25.58545 119.20323 21802 ft 379 kts 229°
2026-05-04 16:46 25.54954 119.16104 21214 ft 370 kts 229°
2026-05-04 16:47 25.51554 119.12119 20909 ft 350 kts 230°
2026-05-04 16:47 25.48278 119.08278 20427 ft 337 kts 230°
2026-05-04 16:48 25.43475 119.02646 19743 ft 339 kts 230°
2026-05-04 16:48 25.41868 119.00765 19519 ft 335 kts 230°
2026-05-04 16:49 25.38675 118.97030 19073 ft 334 kts 229°
2026-05-04 16:49 25.31107 118.88127 17908 ft 330 kts 230°
2026-05-04 16:50 25.18759 118.73178 15948 ft 328 kts 230°
2026-05-04 16:50 25.06668 118.58725 14047 ft 313 kts 229°
2026-05-04 16:51 24.94751 118.45085 12053 ft 306 kts 229°
2026-05-04 16:51 24.88918 118.38397 11080 ft 299 kts 229°
2026-05-04 16:51 24.84853 118.30794 10053 ft 279 kts 277°
2026-05-04 16:52 24.86350 118.27012 9946 ft 266 kts 302°
2026-05-04 16:52 24.87485 118.25490 9928 ft 255 kts 304°
2026-05-04 16:53 24.89387 118.22467 9947 ft 231 kts 291°
2026-05-04 16:53 24.91556 118.17642 9976 ft 237 kts 292°
2026-05-04 16:54 24.92277 118.15991 9948 ft 240 kts 285°
2026-05-04 16:55 24.93859 118.09088 9948 ft 229 kts 280°
2026-05-04 16:55 24.94380 118.05648 9951 ft 227 kts 269°
2026-05-04 16:56 24.94142 118.00712 9601 ft 240 kts 246°
2026-05-04 16:56 24.84559 117.98902 8622 ft 253 kts 181°
2026-05-04 16:57 24.82835 117.99058 8432 ft 249 kts 181°
2026-05-04 16:57 24.79420 117.99369 8075 ft 244 kts 180°
2026-05-04 16:58 24.74344 117.99835 7538 ft 245 kts 180°
2026-05-04 16:58 24.72635 117.99994 7367 ft 247 kts 179°
2026-05-04 16:59 24.69203 118.00314 6982 ft 249 kts 179°
2026-05-04 17:00 24.62416 118.00946 6171 ft 243 kts 178°
2026-05-04 17:00 24.57364 118.01336 5510 ft 243 kts 190°
2026-05-04 17:01 24.54663 117.99385 5014 ft 233 kts 228°
2026-05-04 17:01 24.52544 117.96739 4549 ft 231 kts 229°
2026-05-04 17:02 24.50476 117.94193 4289 ft 213 kts 228°
2026-05-04 17:02 24.48567 117.91868 3997 ft 202 kts 228°
2026-05-04 17:03 24.47628 117.90727 3826 ft 201 kts 229°
2026-05-04 17:03 24.46514 117.89855 3599 ft 197 kts 194°
2026-05-04 17:03 24.44080 117.90687 3284 ft 188 kts 141°
2026-05-04 17:04 24.42088 117.92425 3095 ft 183 kts 130°
2026-05-04 17:04 24.42146 117.94838 3127 ft 174 kts 59°
2026-05-04 17:05 24.43378 117.97112 3087 ft 170 kts 56°
2026-05-04 17:05 24.44753 117.99197 2868 ft 165 kts 51°
2026-05-04 17:06 24.46124 118.01132 2468 ft 160 kts 50°
2026-05-04 17:06 24.46796 118.02077 2282 ft 155 kts 50°
2026-05-04 17:07 24.48038 118.03823 1885 ft 138 kts 49°
2026-05-04 17:07 24.48427 118.04366 1770 ft 136 kts 50°
2026-05-04 17:07 24.49175 118.05432 1457 ft 132 kts 50°
2026-05-04 17:07 24.49745 118.06238 1288 ft 136 kts 49°
2026-05-04 17:08 24.50331 118.07054 1165 ft 136 kts 50°
2026-05-04 17:08 24.51475 118.08658 792 ft 134 kts 51°
2026-05-04 17:08 24.52043 118.09455 591 ft 131 kts 52°
2026-05-04 17:09 24.52596 118.10243 397 ft 131 kts 50°
2026-05-04 17:09 24.53177 118.11027 214 ft 130 kts 51°
2026-05-04 17:09 24.53716 118.11792 63 ft 124 kts 51°
2026-05-04 17:10 24.54346 118.12676 48 ft 22 kts 52°
2026-05-04 17:10 24.54521 118.13038 49 ft 15 kts 78°
2026-05-04 17:11 24.54537 118.13119 50 ft 10 kts 78°
2026-05-04 17:11 24.54549 118.13193 51 ft 10 kts 80°
2026-05-04 17:11 24.54603 118.13323 50 ft 9 kts 51°
2026-05-04 17:12 24.54643 118.13378 49 ft 9 kts 52°
2026-05-04 17:12 24.54638 118.13499 49 ft 9 kts 62°
2026-05-04 17:13 24.54767 118.13681 47 ft 10 kts 52°
2026-05-04 17:14 24.54748 118.13843 47 ft 6 kts 141°
2026-05-04 17:14 24.54717 118.13876 47 ft 6 kts 118°
2026-05-04 17:14 24.54751 118.13942 43 ft 4 kts 52°
2026-05-04 17:15 24.54759 118.13953 44 ft 0 kts 53°